Hourly Weather Roundup
Issued by NWS Central Illinois

Home | Current Version | Previous Version | Text Only | Print | Product List | Glossary On
Versions: 1 2 3 4 5 6 7 8 9 10 11 12 13 14 15 16 17 18 19 20 21 22 23 24 25 26 27 28 29 30 31 32 33 34 35 36 37 38 39 40 41 42 43 44 45 46 47 48 49 50
000
NZUS43 KILX 020110
HWRILX

AREA WEATHER ROUNDUP
NATIONAL WEATHER SERVICE, LINCOLN IL
800 PM CDT WED APR 01 2015


CITY           SKY/WX    TMP DP  RH WIND       PRES   REMARKS
BLOOMINGTON    PTCLDY    62  43  49 S16       29.91S
CHAMPAIGN      PTCLDY    62  40  44 S15       29.94F
DECATUR        MOCLDY    64  40  41 S13       29.91F
EFFINGHAM      MOCLDY    63  37  38 E8        29.97R
FLORA          MOCLDY    60  42  52 SE7       29.97R
GALESBURG      MOCLDY    64  37  37 SE8       29.82S
JACKSONVILLE   CLOUDY    69  39  33 SE12G17   29.86S
LACON          PTCLDY    66  39  37 S15       29.85S
LAWRENCEVILLE  MOCLDY    60  38  43 SE10      29.99F
LITCHFIELD     CLOUDY    65  38  37 SE12      29.90F
$$


CITY           SKY/WX    TMP DP  RH WIND       PRES   REMARKS
LINCOLN        CLOUDY    65  41  41 S13G20    29.88S
MACOMB         CLOUDY    67  37  33 S14       29.83F
MATTOON        MOCLDY    61  40  45 SE9       29.94F
MT CARMEL AP   MOCLDY    61  39  44 CALM      29.98F
OLNEY-NOBLE AP MOCLDY    63  41  45 SE8       29.97R
PARIS          PTCLDY    55  42  63 S8        29.98S
PEORIA         MOCLDY    68  40  35 S13       29.86F
PONTIAC        CLEAR     63  43  47 S15       29.91S
RANTOUL        PTCLDY    59  43  55 S9        29.94S
ROBINSON       MOCLDY    60  37  42 SE8       29.99F
SPRINGFIELD    CLOUDY    67  40  37 S15       29.88F
TAYLORVILLE    MOCLDY    63  41  45 SE14      29.91S
$$

...REGIONAL REPORTS...


CITY           SKY/WX    TMP DP  RH WIND       PRES   REMARKS
CHICAGO O`HARE PTCLDY    65  38  36 S17       29.87R
KANKAKEE       PTCLDY    60  40  48 S10       29.93R
MOLINE         PTCLDY    69  33  26 S16G24    29.78F
MOUNT VERNON   CLOUDY    66  37  34 E6        29.95F
PITTSFIELD     CLOUDY    67  40  37 SE13      29.85S
QUINCY         CLOUDY    68  37  32 S12       29.81S
ROCKFORD       PTCLDY    66  38  35 S20       29.83S
$$


CITY           SKY/WX    TMP DP  RH WIND       PRES   REMARKS
BURLINGTON     MOCLDY    69  38  32 S13G21    29.78F
CEDAR RAPIDS   CLEAR     69  37  30 S13G23    29.71F
DES MOINES     PTCLDY    74  48  39 S15G26    29.64F
KIRKSVILLE     CLOUDY    67  51  56 S15       29.78S
OTTUMWA        CLEAR     71  44  37 S20       29.71S
ST LOUIS       CLOUDY    72  38  29 SE18G24   29.88S
$$


CITY           SKY/WX    TMP DP  RH WIND       PRES   REMARKS
TERRE HAUTE    PTCLDY    58  37  45 SE7       29.99F
EVANSVILLE     MOCLDY    66  35  31 SE5       30.00R
INDIANAPOLIS   MOCLDY    59  34  39 SE9       30.00S
LAFAYETTE      PTCLDY    62  34  35 S8        29.97S
MADISON        MOCLDY    68  35  29 S13       29.74F
MILWAUKEE      MOCLDY    58  36  43 S10       29.82F
$$





USA.gov is the U.S. government's official web portal to all federal, state and local government web resources and services.